Terug naar catalogus

STARLINK-30374

ActiefCommunicatieVLEO
NORAD 57809·PAYLOAD·🇺🇸 United States

Gelanceerd Sep 9, 2023 vanaf Cape Canaveral Space Force Station

Loading…

Volgende Passages (komende 24 uur)

TLE

VersSource: CelesTrak SupGP

Epoch: Sep 14, 2026, 21:23 UTC

1 57809C 23138B   26257.89145833  .00030974  00000+0  11212-2 0  2577
2 57809  42.9989 245.4156 0001314 264.7439 226.3993 15.27582089    15

Volg STARLINK-30374 in realtime met AllMySat

Download on the App Store